QPF
0.00 0.00 0.00 0.00 0.00 0.00 0.00 0.00 0.00 0.03 0.03 0.01 0.00 0.00 0.00 0.01 0.01 0.00 0.00 0.00 0.00 0.00 0.00 0.01 0.01 0.02 0.03 0.03 0.05 0.06 0.04 0.05 0.05 0.04 0.05 0.05 0.05 0.04 0.04 0.03 0.02 0.03 0.03 0.03
0.00 0.00 0.00 0.00 0.00 0.00 0.00 0.00 0.00 0.01 0.01 0.01 0.00 0.00 0.00 0.00 0.01 0.01 0.01 0.01 0.00 0.00 0.00 0.00 0.00 0.01 0.02 0.02 0.03 0.03 0.03 0.03 0.03 0.02 0.02 0.03 0.03 0.04 0.04 0.03 0.04 0.04 0.03 0.03
0.00 0.00 0.00 0.00 0.00 0.00 0.00 0.00 0.00 0.00 0.01 0.01 0.00 0.00 0.00 0.00 0.00 0.01 0.01 0.01 0.01 0.01 0.00 0.00 0.00 0.01 0.01 0.01 0.01 0.01 0.02 0.01 0.01 0.02 0.01 0.02 0.02 0.02 0.02 0.03 0.03 0.04 0.03 0.03
0.00 0.01 0.01 0.01 0.00 0.00 0.00 0.00 0.00 0.00 0.00 0.00 0.00 0.00 0.00 0.00 0.00 0.00 0.01 0.01 0.01 0.01 0.00 0.00 0.00 0.01 0.01 0.01 0.01 0.01 0.01 0.00 0.01 0.01 0.01 0.01 0.01 0.01 0.01 0.02 0.03 0.03 0.03 0.03
0.00 0.01 0.01 0.01 0.00 0.00 0.00 0.01 0.01 0.02 0.02 0.01 0.00 0.00 0.00 0.00 0.00 0.00 0.01 0.01 0.01 0.00 0.01 0.01 0.01 0.01 0.01 0.01 0.01 0.01 0.00 0.00 0.00 0.01 0.01 0.01 0.00 0.01 0.01 0.02 0.02 0.03 0.03 0.03
0.01 0.01 0.01 0.01 0.00 0.00 0.00 0.01 0.02 0.02 0.03 0.02 0.01 0.01 0.01 0.00 0.00 0.00 0.01 0.01 0.00 0.00 0.00 0.01 0.01 0.00 0.00 0.00 0.00 0.01 0.00 0.00 0.00 0.00 0.01 0.01 0.01 0.01 0.01 0.01 0.01 0.01 0.01 0.01
0.01 0.01 0.01 0.00 0.00 0.00 0.01 0.02 0.01 0.01 0.01 0.01 0.01 0.01 0.01 0.00 0.00 0.00 0.00 0.00 0.00 0.00 0.00 0.01 0.01 0.00 0.01 0.01 0.00 0.00 0.00 0.00 0.00 0.00 0.01 0.01 0.01 0.01 0.02 0.01 0.01 0.01 0.01 0.01
0.02 0.02 0.02 0.00 0.00 0.01 0.02 0.01 0.00 0.00 0.00 0.00 0.00 0.00 0.00 0.00 0.00 0.00 0.00 0.00 0.00 0.00 0.01 0.01 0.01 0.01 0.01 0.01 0.01 0.00 0.00 0.00 0.00 0.00 0.01 0.01 0.02 0.02 0.02 0.02 0.02 0.02 0.02 0.02
0.02 0.03 0.02 0.01 0.01 0.01 0.01 0.01 0.01 0.00 0.01 0.01 0.00 0.00 0.00 0.00 0.00 0.00 0.00 0.00 0.00 0.00 0.01 0.02 0.02 0.02 0.03 0.03 0.01 0.00 0.00 0.00 0.00 0.00 0.00 0.01 0.01 0.02 0.02 0.02 0.02 0.02 0.02 0.02
0.03 0.02 0.02 0.01 0.01 0.01 0.01 0.01 0.00 0.00 0.00 0.00 0.00 0.00 0.00 0.00 0.00 0.00 0.00 0.00 0.00 0.01 0.02 0.02 0.02 0.03 0.04 0.02 0.01 0.01 0.01 0.01 0.01 0.01 0.01 0.01 0.01 0.01 0.02 0.02 0.03 0.03 0.03 0.02
0.02 0.02 0.02 0.01 0.02 0.02 0.02 0.01 0.01 0.00 0.00 0.00 0.00 0.00 0.00 0.00 0.00 0.00 0.00 0.01 0.02 0.02 0.02 0.02 0.02 0.03 0.03 0.03 0.02 0.01 0.01 0.01 0.01 0.01 0.01 0.02 0.02 0.02 0.03 0.03 0.04 0.05 0.04 0.03
0.02 0.01 0.01 0.01 0.01 0.01 0.01 0.01 0.01 0.01 0.00 0.00 0.00 0.00 0.00 0.00 0.00 0.00 0.00 0.01 0.02 0.03 0.03 0.04 0.04 0.05 0.04 0.03 0.03 0.04 0.04 0.04 0.04 0.05 0.05 0.05 0.06 0.06 0.05 0.04 0.04 0.03 0.03 0.02
0.01 0.02 0.02 0.02 0.01 0.01 0.01 0.01 0.01 0.01 0.01 0.01 0.01 0.01 0.00 0.00 0.00 0.00 0.01 0.01 0.01 0.02 0.03 0.04 0.06 0.09 0.06 0.03 0.04 0.05 0.05 0.05 0.05 0.06 0.06 0.06 0.06 0.05 0.04 0.03 0.03 0.02 0.02 0.01
0.01 0.01 0.02 0.02 0.01 0.02 0.01 0.01 0.01 0.01 0.01 0.01 0.02 0.01 0.00 0.01 0.01 0.01 0.02 0.02 0.02 0.03 0.03 0.04 0.05 0.06 0.04 0.04 0.04 0.05 0.04 0.04 0.05 0.05 0.04 0.03 0.03 0.04 0.03 0.03 0.03 0.02 0.01 0.01
0.01 0.01 0.01 0.01 0.01 0.01 0.01 0.01 0.01 0.02 0.02 0.02 0.02 0.01 0.01 0.01 0.02 0.02 0.02 0.02 0.02 0.03 0.03 0.04 0.04 0.04 0.03 0.03 0.04 0.05 0.03 0.03 0.02 0.03 0.02 0.01 0.02 0.02 0.02 0.02 0.02 0.01 0.01 0.01
0.01 0.01 0.01 0.01 0.01 0.01 0.01 0.01 0.01 0.02 0.03 0.02 0.02 0.02 0.02 0.02 0.03 0.03 0.02 0.02 0.02 0.02 0.03 0.03 0.03 0.03 0.03 0.05 0.06 0.06 0.05 0.04 0.02 0.01 0.01 0.01 0.02 0.02 0.02 0.02 0.02 0.02 0.03 0.03
0.01 0.01 0.01 0.01 0.01 0.01 0.01 0.02 0.02 0.03 0.03 0.02 0.03 0.03 0.03 0.03 0.02 0.02 0.01 0.01 0.01 0.02 0.02 0.03 0.03 0.03 0.02 0.02 0.03 0.04 0.05 0.05 0.04 0.02 0.01 0.01 0.01 0.02 0.02 0.04 0.04 0.04 0.04 0.04
0.01 0.01 0.01 0.01 0.01 0.02 0.03 0.03 0.03 0.03 0.02 0.02 0.02 0.02 0.03 0.02 0.01 0.01 0.01 0.02 0.02 0.02 0.02 0.03 0.03 0.02 0.02 0.02 0.02 0.02 0.03 0.05 0.06 0.04 0.03 0.02 0.02 0.02 0.02 0.03 0.03 0.03 0.04 0.04
0.01 0.01 0.01 0.01 0.01 0.02 0.03 0.02 0.03 0.04 0.03 0.03 0.03 0.03 0.02 0.01 0.02 0.02 0.02 0.03 0.03 0.03 0.03 0.03 0.03 0.02 0.02 0.02 0.02 0.03 0.03 0.04 0.04 0.05 0.05 0.04 0.04 0.03 0.03 0.03 0.02 0.02 0.01 0.01
0.02 0.02 0.02 0.01 0.01 0.02 0.02 0.02 0.04 0.04 0.03 0.03 0.03 0.03 0.04 0.04 0.03 0.03 0.02 0.03 0.03 0.04 0.04 0.03 0.03 0.03 0.03 0.03 0.03 0.03 0.03 0.04 0.04 0.04 0.05 0.06 0.06 0.05 0.04 0.03 0.03 0.02 0.01 0.02
0.02 0.03 0.02 0.01 0.01 0.01 0.01 0.01 0.02 0.03 0.02 0.03 0.03 0.03 0.04 0.03 0.03 0.04 0.03 0.03 0.03 0.05 0.04 0.03 0.03 0.03 0.04 0.04 0.03 0.02 0.02 0.03 0.04 0.04 0.04 0.05 0.05 0.04 0.05 0.05 0.04 0.04 0.03 0.04
0.02 0.02 0.01 0.01 0.01 0.01 0.01 0.01 0.02 0.02 0.02 0.02 0.02 0.03 0.02 0.03 0.02 0.03 0.04 0.05 0.04 0.03 0.03 0.02 0.02 0.02 0.03 0.02 0.01 0.02 0.02 0.02 0.02 0.02 0.03 0.03 0.03 0.04 0.05 0.05 0.06 0.06 0.06 0.05
0.02 0.01 0.01 0.01 0.02 0.02 0.02 0.02 0.02 0.02 0.02 0.03 0.04 0.04 0.04 0.04 0.03 0.04 0.04 0.03 0.03 0.03 0.03 0.02 0.03 0.03 0.03 0.01 0.01 0.01 0.01 0.02 0.02 0.02 0.02 0.03 0.03 0.04 0.05 0.05 0.05 0.05 0.05 0.05
0.02 0.02 0.02 0.03 0.04 0.05 0.04 0.02 0.02 0.02 0.03 0.02 0.02 0.03 0.04 0.04 0.04 0.04 0.04 0.03 0.03 0.03 0.03 0.03 0.02 0.02 0.02 0.01 0.01 0.02 0.02 0.02 0.02 0.01 0.01 0.02 0.02 0.03 0.04 0.05 0.05 0.04 0.04 0.04
0.03 0.05 0.05 0.05 0.06 0.05 0.03 0.03 0.03 0.03 0.02 0.02 0.01 0.01 0.02 0.04 0.04 0.04 0.04 0.03 0.03 0.04 0.03 0.03 0.03 0.02 0.01 0.01 0.01 0.02 0.02 0.02 0.02 0.02 0.01 0.02 0.02 0.02 0.03 0.04 0.04 0.03 0.02 0.02
0.05 0.06 0.05 0.05 0.05 0.04 0.03 0.03 0.03 0.03 0.03 0.03 0.02 0.02 0.02 0.03 0.04 0.04 0.03 0.02 0.03 0.03 0.03 0.04 0.04 0.04 0.03 0.02 0.02 0.03 0.03 0.03 0.03 0.02 0.02 0.02 0.02 0.03 0.02 0.02 0.02 0.03 0.03 0.04
0.04 0.05 0.05 0.05 0.04 0.04 0.03 0.02 0.02 0.02 0.02 0.02 0.02 0.02 0.02 0.02 0.03 0.03 0.04 0.04 0.03 0.03 0.03 0.03 0.04 0.04 0.05 0.05 0.05 0.04 0.03 0.03 0.03 0.03 0.03 0.03 0.04 0.04 0.03 0.02 0.03 0.03 0.03 0.03
MSLP
1009.49 1009.98 1010.40 1010.72 1010.91 1010.97 1010.88 1010.64 1010.29 1009.84 1009.35 1008.85 1008.40 1008.03 1007.78 1007.66 1007.69 1007.84 1008.11 1008.46 1008.87 1009.32 1009.79 1010.26 1010.73 1011.20 1011.65 1012.09 1012.48 1012.83 1013.13 1013.34 1013.49 1013.56 1013.58 1013.55 1013.50 1013.44 1013.39 1013.35 1013.31 1013.27 1013.19 1013.07
1010.07 1010.49 1010.77 1010.89 1010.84 1010.63 1010.28 1009.83 1009.30 1008.76 1008.23 1007.77 1007.40 1007.16 1007.05 1007.07 1007.21 1007.46 1007.79 1008.19 1008.63 1009.11 1009.61 1010.13 1010.65 1011.18 1011.70 1012.20 1012.65 1013.04 1013.36 1013.60 1013.75 1013.83 1013.83 1013.79 1013.73 1013.65 1013.57 1013.50 1013.43 1013.34 1013.23 1013.08
1010.71 1011.08 1011.25 1011.20 1010.95 1010.52 1009.95 1009.31 1008.63 1007.99 1007.42 1006.96 1006.65 1006.49 1006.47 1006.58 1006.80 1007.10 1007.48 1007.91 1008.38 1008.88 1009.41 1009.97 1010.55 1011.13 1011.72 1012.27 1012.77 1013.21 1013.55 1013.81 1013.96 1014.02 1014.02 1013.96 1013.86 1013.75 1013.64 1013.53 1013.41 1013.28 1013.13 1012.95
1011.33 1011.65 1011.74 1011.57 1011.17 1010.58 1009.85 1009.06 1008.27 1007.54 1006.93 1006.47 1006.17 1006.05 1006.07 1006.23 1006.49 1006.82 1007.22 1007.67 1008.16 1008.68 1009.24 1009.84 1010.47 1011.11 1011.74 1012.34 1012.88 1013.34 1013.70 1013.95 1014.10 1014.15 1014.12 1014.03 1013.91 1013.77 1013.63 1013.48 1013.32 1013.16 1012.97 1012.76
1011.78 1012.08 1012.10 1011.87 1011.37 1010.68 1009.86 1008.98 1008.12 1007.34 1006.70 1006.22 1005.94 1005.82 1005.87 1006.04 1006.31 1006.66 1007.07 1007.53 1008.03 1008.58 1009.18 1009.81 1010.47 1011.15 1011.81 1012.44 1012.99 1013.46 1013.81 1014.05 1014.18 1014.21 1014.16 1014.05 1013.91 1013.75 1013.59 1013.41 1013.23 1013.04 1012.84 1012.61
1011.98 1012.24 1012.23 1011.95 1011.42 1010.70 1009.84 1008.94 1008.07 1007.28 1006.64 1006.17 1005.89 1005.78 1005.83 1006.01 1006.29 1006.64 1007.06 1007.54 1008.06 1008.63 1009.25 1009.91 1010.60 1011.29 1011.96 1012.58 1013.12 1013.57 1013.90 1014.11 1014.21 1014.22 1014.15 1014.04 1013.89 1013.73 1013.57 1013.40 1013.22 1013.03 1012.81 1012.58
1011.87 1012.08 1012.04 1011.76 1011.24 1010.53 1009.72 1008.86 1008.02 1007.28 1006.68 1006.24 1005.98 1005.89 1005.95 1006.14 1006.42 1006.79 1007.22 1007.71 1008.25 1008.84 1009.48 1010.15 1010.83 1011.51 1012.17 1012.76 1013.26 1013.66 1013.95 1014.12 1014.20 1014.19 1014.11 1014.00 1013.87 1013.74 1013.60 1013.45 1013.30 1013.13 1012.94 1012.72
1011.48 1011.63 1011.58 1011.30 1010.83 1010.19 1009.46 1008.69 1007.95 1007.30 1006.77 1006.39 1006.18 1006.12 1006.21 1006.41 1006.71 1007.09 1007.53 1008.03 1008.59 1009.18 1009.82 1010.47 1011.14 1011.79 1012.39 1012.93 1013.37 1013.71 1013.94 1014.07 1014.11 1014.09 1014.02 1013.93 1013.83 1013.74 1013.65 1013.56 1013.46 1013.34 1013.18 1012.99
1010.91 1011.01 1010.93 1010.68 1010.28 1009.74 1009.13 1008.49 1007.88 1007.34 1006.91 1006.62 1006.47 1006.46 1006.57 1006.80 1007.11 1007.50 1007.95 1008.45 1009.00 1009.59 1010.20 1010.82 1011.44 1012.03 1012.56 1013.02 1013.39 1013.66 1013.83 1013.91 1013.93 1013.90 1013.84 1013.78 1013.73 1013.69 1013.67 1013.65 1013.62 1013.56 1013.45 1013.30
1010.31 1010.36 1010.27 1010.06 1009.73 1009.30 1008.82 1008.32 1007.85 1007.44 1007.12 1006.92 1006.84 1006.87 1007.01 1007.25 1007.57 1007.95 1008.39 1008.88 1009.41 1009.96 1010.53 1011.10 1011.65 1012.16 1012.61 1012.98 1013.27 1013.46 1013.58 1013.62 1013.61 1013.57 1013.54 1013.51 1013.51 1013.54 1013.59 1013.64 1013.68 1013.69 1013.65 1013.54
1009.85 1009.85 1009.76 1009.59 1009.33 1009.00 1008.64 1008.27 1007.93 1007.63 1007.41 1007.28 1007.25 1007.32 1007.47 1007.70 1008.01 1008.37 1008.78 1009.23 1009.71 1010.21 1010.71 1011.21 1011.68 1012.10 1012.47 1012.76 1012.97 1013.10 1013.16 1013.17 1013.15 1013.11 1013.09 1013.10 1013.15 1013.23 1013.34 1013.46 1013.57 1013.64 1013.66 1013.61
1009.63 1009.59 1009.50 1009.35 1009.15 1008.91 1008.65 1008.38 1008.13 1007.91 1007.76 1007.67 1007.66 1007.73 1007.87 1008.08 1008.35 1008.66 1009.02 1009.41 1009.82 1010.25 1010.68 1011.09 1011.48 1011.83 1012.12 1012.34 1012.49 1012.57 1012.60 1012.59 1012.56 1012.54 1012.53 1012.57 1012.65 1012.77 1012.92 1013.09 1013.24 1013.37 1013.44 1013.44
1009.65 1009.58 1009.49 1009.36 1009.20 1009.02 1008.81 1008.60 1008.41 1008.24 1008.11 1008.04 1008.02 1008.07 1008.17 1008.32 1008.52 1008.77 1009.06 1009.37 1009.71 1010.06 1010.42 1010.76 1011.08 1011.36 1011.59 1011.76 1011.88 1011.94 1011.95 1011.94 1011.92 1011.90 1011.91 1011.97 1012.06 1012.20 1012.37 1012.56 1012.74 1012.89 1013.00 1013.04
1009.84 1009.76 1009.66 1009.54 1009.40 1009.24 1009.06 1008.88 1008.70 1008.55 1008.42 1008.32 1008.27 1008.27 1008.31 1008.39 1008.52 1008.69 1008.90 1009.13 1009.39 1009.67 1009.96 1010.24 1010.50 1010.74 1010.95 1011.10 1011.21 1011.27 1011.30 1011.30 1011.30 1011.29 1011.31 1011.37 1011.46 1011.59 1011.76 1011.94 1012.12 1012.29 1012.42 1012.49
1010.09 1009.99 1009.89 1009.76 1009.63 1009.47 1009.30 1009.12 1008.94 1008.77 1008.62 1008.49 1008.39 1008.33 1008.30 1008.32 1008.37 1008.46 1008.58 1008.74 1008.93 1009.14 1009.37 1009.61 1009.84 1010.07 1010.26 1010.43 1010.56 1010.65 1010.71 1010.74 1010.76 1010.77 1010.80 1010.85 1010.92 1011.03 1011.17 1011.33 1011.49 1011.64 1011.77 1011.86
1010.28 1010.17 1010.05 1009.93 1009.79 1009.63 1009.46 1009.28 1009.09 1008.90 1008.72 1008.56 1008.41 1008.29 1008.20 1008.14 1008.12 1008.13 1008.18 1008.27 1008.39 1008.55 1008.74 1008.94 1009.17 1009.39 1009.61 1009.80 1009.97 1010.11 1010.21 1010.28 1010.33 1010.36 1010.39 1010.43 1010.49 1010.56 1010.66 1010.77 1010.90 1011.02 1011.14 1011.22
1010.35 1010.23 1010.11 1009.98 1009.84 1009.69 1009.52 1009.34 1009.15 1008.96 1008.76 1008.57 1008.39 1008.23 1008.08 1007.96 1007.86 1007.80 1007.78 1007.80 1007.87 1007.97 1008.12 1008.31 1008.53 1008.76 1009.00 1009.24 1009.45 1009.64 1009.79 1009.90 1009.99 1010.04 1010.08 1010.11 1010.14 1010.18 1010.23 1010.30 1010.39 1010.47 1010.56 1010.64
1010.30 1010.17 1010.05 1009.94 1009.81 1009.68 1009.54 1009.38 1009.20 1009.02 1008.82 1008.61 1008.41 1008.21 1008.01 1007.83 1007.67 1007.54 1007.45 1007.40 1007.40 1007.45 1007.56 1007.73 1007.93 1008.17 1008.43 1008.70 1008.95 1009.19 1009.39 1009.55 1009.66 1009.74 1009.79 1009.81 1009.82 1009.83 1009.85 1009.88 1009.92 1009.97 1010.03 1010.09
1010.20 1010.08 1009.98 1009.89 1009.80 1009.70 1009.59 1009.46 1009.32 1009.15 1008.96 1008.75 1008.53 1008.29 1008.05 1007.81 1007.58 1007.37 1007.19 1007.06 1006.99 1006.98 1007.04 1007.16 1007.34 1007.57 1007.84 1008.13 1008.41 1008.68 1008.91 1009.10 1009.25 1009.35 1009.41 1009.44 1009.44 1009.43 1009.43 1009.43 1009.44 1009.47 1009.50 1009.55
1010.16 1010.07 1010.00 1009.94 1009.89 1009.83 1009.76 1009.67 1009.55 1009.40 1009.21 1009.00 1008.74 1008.46 1008.16 1007.85 1007.54 1007.24 1006.97 1006.75 1006.59 1006.50 1006.49 1006.56 1006.70 1006.91 1007.16 1007.45 1007.74 1008.03 1008.28 1008.50 1008.67 1008.79 1008.86 1008.90 1008.90 1008.90 1008.88 1008.88 1008.88 1008.89 1008.92 1008.96
1010.28 1010.21 1010.17 1010.15 1010.13 1010.10 1010.06 1009.99 1009.89 1009.74 1009.54 1009.30 1009.00 1008.66 1008.28 1007.88 1007.47 1007.07 1006.70 1006.37 1006.12 1005.94 1005.85 1005.86 1005.95 1006.12 1006.35 1006.62 1006.91 1007.20 1007.47 1007.70 1007.88 1008.02 1008.11 1008.16 1008.18 1008.19 1008.19 1008.19 1008.20 1008.22 1008.25 1008.29
1010.59 1010.54 1010.51 1010.50 1010.50 1010.48 1010.44 1010.37 1010.25 1010.07 1009.84 1009.54 1009.17 1008.75 1008.28 1007.78 1007.27 1006.76 1006.28 1005.85 1005.51 1005.25 1005.09 1005.03 1005.07 1005.20 1005.41 1005.66 1005.94 1006.23 1006.50 1006.74 1006.94 1007.09 1007.20 1007.27 1007.31 1007.34 1007.37 1007.39 1007.42 1007.46 1007.51 1007.57
1011.03 1010.98 1010.95 1010.93 1010.90 1010.86 1010.79 1010.67 1010.50 1010.27 1009.97 1009.59 1009.14 1008.63 1008.06 1007.46 1006.84 1006.24 1005.67 1005.16 1004.74 1004.41 1004.20 1004.11 1004.12 1004.22 1004.41 1004.65 1004.93 1005.21 1005.49 1005.73 1005.94 1006.11 1006.24 1006.33 1006.40 1006.46 1006.51 1006.56 1006.62 1006.68 1006.76 1006.83
1011.51 1011.43 1011.35 1011.28 1011.20 1011.10 1010.96 1010.77 1010.52 1010.21 1009.82 1009.36 1008.82 1008.21 1007.56 1006.88 1006.19 1005.51 1004.89 1004.33 1003.87 1003.52 1003.29 1003.18 1003.19 1003.30 1003.48 1003.73 1004.02 1004.31 1004.59 1004.85 1005.07 1005.25 1005.39 1005.51 1005.60 1005.68 1005.75 1005.83 1005.91 1005.99 1006.08 1006.18
1011.89 1011.74 1011.59 1011.44 1011.27 1011.08 1010.84 1010.57 1010.23 1009.83 1009.36 1008.82 1008.21 1007.54 1006.83 1006.11 1005.38 1004.68 1004.04 1003.49 1003.03 1002.70 1002.49 1002.41 1002.44 1002.58 1002.79 1003.07 1003.37 1003.68 1003.98 1004.25 1004.48 1004.68 1004.83 1004.96 1005.06 1005.15 1005.24 1005.33 1005.41 1005.51 1005.60 1005.69
1012.06 1011.82 1011.57 1011.31 1011.04 1010.75 1010.42 1010.06 1009.65 1009.18 1008.65 1008.07 1007.43 1006.74 1006.03 1005.30 1004.59 1003.93 1003.33 1002.81 1002.42 1002.14 1001.99 1001.96 1002.05 1002.23 1002.49 1002.80 1003.14 1003.47 1003.79 1004.08 1004.32 1004.53 1004.69 1004.82 1004.92 1005.01 1005.09 1005.17 1005.24 1005.32 1005.39 1005.46
1011.97 1011.62 1011.27 1010.91 1010.54 1010.17 1009.77 1009.35 1008.90 1008.41 1007.88 1007.30 1006.68 1006.04 1005.37 1004.71 1004.06 1003.47 1002.95 1002.52 1002.21 1002.01 1001.94 1001.98 1002.14 1002.38 1002.68 1003.03 1003.40 1003.76 1004.09 1004.39 1004.65 1004.85 1005.01 1005.14 1005.23 1005.30 1005.36 1005.40 1005.44 1005.47 1005.49 1005.50
Thickness
5808 5818 5822 5820 5822 5825 5820 5817 5805 5806 5810 5816 5822 5827 5828 5828 5828 5825 5821 5818 5815 5812 5810 5809 5806 5804 5802 5799 5796 5793 5789 5785 5782 5782 5779 5776 5774 5771 5769 5766 5764 5761 5758 5755
5796 5811 5815 5813 5819 5821 5820 5819 5813 5810 5806 5824 5828 5828 5823 5821 5819 5815 5813 5812 5811 5808 5804 5802 5800 5798 5796 5793 5791 5789 5784 5781 5779 5777 5774 5771 5769 5766 5764 5761 5759 5757 5754 5751
5779 5799 5802 5794 5811 5812 5811 5815 5812 5799 5804 5817 5815 5814 5814 5813 5812 5810 5809 5807 5805 5803 5801 5798 5797 5795 5791 5790 5787 5784 5780 5777 5775 5772 5768 5766 5764 5761 5758 5756 5753 5750 5749 5746
5777 5780 5762 5797 5828 5822 5810 5812 5815 5811 5812 5813 5812 5813 5815 5814 5808 5805 5804 5802 5801 5800 5797 5796 5795 5792 5789 5786 5782 5778 5774 5772 5769 5766 5763 5761 5759 5756 5753 5751 5748 5745 5744 5742
5767 5763 5774 5797 5813 5814 5802 5796 5808 5805 5806 5808 5810 5806 5802 5808 5807 5802 5800 5798 5797 5797 5795 5792 5789 5787 5783 5779 5775 5771 5768 5765 5764 5761 5758 5755 5752 5750 5748 5745 5743 5741 5739 5737
5759 5750 5752 5778 5806 5819 5805 5779 5798 5799 5795 5796 5796 5781 5782 5797 5799 5796 5794 5793 5791 5790 5788 5784 5782 5780 5774 5770 5767 5764 5762 5760 5759 5756 5753 5750 5747 5745 5743 5741 5738 5736 5734 5732
5751 5749 5759 5786 5802 5804 5770 5763 5789 5792 5790 5789 5782 5780 5785 5791 5790 5788 5786 5785 5783 5781 5777 5775 5774 5770 5765 5762 5759 5759 5758 5754 5751 5749 5747 5744 5742 5740 5737 5735 5732 5729 5727 5726
5749 5741 5744 5780 5786 5771 5764 5779 5783 5782 5783 5780 5779 5780 5780 5780 5778 5777 5775 5775 5774 5770 5767 5767 5766 5761 5756 5753 5754 5753 5750 5746 5744 5742 5740 5739 5735 5732 5730 5728 5724 5721 5719 5718
5745 5744 5759 5771 5769 5772 5774 5771 5773 5774 5775 5774 5771 5770 5770 5769 5768 5767 5766 5765 5764 5761 5757 5756 5755 5752 5746 5746 5747 5744 5741 5738 5736 5734 5732 5730 5728 5725 5722 5720 5718 5715 5713 5711
5741 5745 5752 5758 5761 5764 5766 5765 5767 5768 5768 5767 5763 5761 5759 5758 5757 5755 5755 5754 5753 5750 5747 5744 5744 5742 5739 5739 5738 5735 5731 5729 5727 5724 5723 5721 5720 5718 5715 5713 5711 5708 5706 5704
5730 5737 5741 5746 5749 5751 5755 5758 5757 5758 5759 5757 5755 5752 5750 5747 5746 5745 5744 5743 5742 5739 5736 5734 5733 5732 5731 5729 5728 5724 5721 5719 5718 5716 5715 5712 5711 5709 5708 5705 5704 5700 5699 5697
5720 5729 5729 5731 5740 5744 5742 5742 5743 5743 5744 5746 5745 5742 5741 5738 5737 5735 5733 5732 5730 5728 5726 5724 5723 5721 5721 5720 5717 5713 5710 5709 5709 5708 5706 5705 5703 5701 5700 5698 5696 5695 5692 5688
5726 5729 5728 5730 5732 5735 5734 5735 5736 5735 5734 5734 5735 5735 5732 5729 5727 5725 5722 5721 5718 5717 5716 5714 5712 5710 5710 5710 5707 5704 5702 5701 5700 5699 5698 5697 5695 5693 5691 5689 5687 5685 5682 5680
5722 5720 5716 5718 5720 5724 5726 5727 5727 5727 5726 5726 5725 5724 5722 5719 5717 5714 5712 5711 5710 5708 5706 5704 5702 5701 5701 5700 5698 5696 5695 5695 5693 5692 5691 5691 5689 5688 5686 5683 5679 5677 5675 5671
5710 5711 5710 5711 5713 5715 5716 5717 5715 5714 5714 5714 5715 5713 5711 5708 5705 5704 5704 5703 5701 5698 5696 5694 5693 5692 5692 5692 5690 5688 5688 5687 5687 5685 5685 5685 5684 5682 5680 5677 5674 5672 5668 5663
5700 5702 5703 5702 5702 5704 5705 5704 5703 5702 5703 5703 5702 5702 5701 5700 5698 5696 5695 5693 5690 5687 5686 5686 5684 5685 5685 5684 5682 5681 5680 5679 5678 5678 5678 5677 5676 5674 5671 5668 5665 5663 5661 5658
5686 5686 5688 5688 5691 5693 5694 5695 5695 5695 5695 5693 5692 5692 5691 5689 5688 5686 5685 5684 5681 5679 5679 5678 5677 5678 5677 5675 5674 5674 5674 5674 5671 5670 5669 5668 5666 5664 5662 5659 5656 5654 5652 5651
5683 5683 5684 5683 5683 5684 5684 5686 5687 5687 5686 5686 5684 5682 5679 5677 5676 5675 5675 5674 5672 5671 5670 5670 5670 5670 5669 5668 5666 5666 5666 5666 5665 5663 5661 5659 5657 5655 5653 5651 5648 5646 5645 5643
5676 5676 5676 5676 5676 5676 5676 5676 5677 5678 5677 5676 5674 5671 5670 5669 5667 5666 5665 5664 5662 5661 5662 5663 5661 5661 5661 5660 5658 5657 5656 5656 5655 5654 5652 5649 5648 5648 5646 5644 5643 5641 5640 5637
5668 5668 5667 5667 5668 5668 5667 5668 5668 5668 5668 5666 5664 5662 5660 5660 5660 5657 5655 5654 5655 5655 5656 5655 5654 5653 5653 5652 5650 5650 5648 5647 5646 5644 5643 5642 5640 5639 5638 5637 5637 5636 5634 5632
5658 5658 5657 5657 5658 5658 5659 5659 5658 5657 5658 5657 5655 5653 5652 5652 5652 5651 5648 5647 5649 5649 5649 5647 5646 5646 5645 5643 5642 5642 5640 5639 5637 5635 5634 5633 5632 5631 5631 5630 5629 5628 5627 5626
5649 5649 5649 5649 5649 5649 5650 5650 5650 5649 5648 5648 5647 5646 5645 5643 5644 5643 5642 5640 5641 5639 5640 5641 5639 5637 5637 5635 5636 5634 5633 5631 5630 5628 5626 5625 5625 5624 5623 5622 5621 5621 5620 5619
5642 5642 5641 5641 5641 5641 5642 5643 5643 5642 5641 5640 5639 5638 5637 5636 5636 5634 5632 5633 5634 5631 5631 5631 5629 5627 5626 5627 5628 5628 5626 5625 5623 5621 5619 5619 5618 5617 5617 5616 5615 5614 5613 5612
5634 5634 5634 5635 5635 5634 5633 5635 5636 5636 5636 5635 5635 5634 5632 5630 5630 5630 5629 5627 5625 5623 5624 5622 5619 5618 5617 5619 5619 5619 5618 5618 5617 5615 5614 5613 5612 5610 5610 5609 5608 5607 5606 5606
5627 5627 5628 5628 5628 5629 5629 5630 5630 5630 5631 5631 5631 5630 5629 5627 5625 5624 5623 5621 5618 5617 5617 5615 5611 5610 5611 5613 5612 5611 5611 5610 5610 5608 5607 5605 5604 5603 5602 5601 5600 5599 5597 5596
5622 5622 5623 5623 5624 5624 5625 5625 5625 5626 5626 5625 5624 5624 5623 5622 5620 5619 5617 5616 5615 5612 5611 5609 5607 5604 5605 5606 5605 5605 5604 5603 5602 5601 5600 5598 5597 5596 5595 5594 5593 5591 5589 5588
5618 5618 5618 5618 5619 5620 5620 5620 5619 5619 5619 5618 5617 5617 5616 5615 5614 5613 5611 5610 5608 5606 5605 5604 5602 5601 5600 5599 5598 5597 5596 5596 5595 5593 5591 5590 5589 5587 5586 5585 5584 5582 5580 5579